Simultaneous Nadir Overpasses (SNOs) Predictions

Prediction of SNOs between GOES-17 and METOP-B Satellite Orbit:

Table of predicted SNOs for the next 14.0 days since TLE Epoch: 8/17/2024
Index Date Time (GOES-17) GOES-17 Lat,Lon METOP-B Lat,Lon Distance(km) Time Diff (sec)
1 08/18/2024 04:30:09 -0.01,-104.68 -0.58,-107.15 282.00 80
2 08/19/2024 04:06:50 -0.00,-104.68 0.54,-102.17 285.66 80
3 08/20/2024 16:25:43 0.00,-104.71 0.46,-106.75 232.35 80
4 08/21/2024 16:07:45 0.00,-104.71 -0.66,-101.77 335.69 80
5 08/23/2024 04:26:46 -0.00,-104.68 -0.35,-106.39 194.00 80
6 08/24/2024 04:03:27 -0.00,-104.68 0.73,-101.39 374.05 80
7 08/25/2024 16:22:19 0.01,-104.71 0.30,-105.97 143.70 80
8 08/26/2024 16:04:20 0.01,-104.71 -0.79,-100.98 424.44 80
9 08/28/2024 04:23:21 -0.01,-104.67 -0.19,-105.60 105.12 80
10 08/29/2024 04:00:01 -0.01,-104.67 0.91,-100.61 462.95 80
11 08/30/2024 16:18:53 0.01,-104.70 0.14,-105.18 54.77 80
